�N����,����,�~����,�C��,���x,�C��,����,���ϕ���,�ő�u�ԕ���,�ő厞����,���˗�,�I�_���x,�n�����x,�ő啗���N��,DTYPE
"19/10/18","00:10",0.0,16.9,87.3,1017.5,294.9,1.1,2.1,341.3,0.00,14.8,19.2,"00:02:16",1
"19/10/18","00:20",0.0,16.8,87.7,1017.5,291.1,0.8,1.3,322.9,0.00,14.8,19.3,"00:14:40",1
"19/10/18","00:30",0.0,16.8,88.1,1017.8,286.2,1.0,1.8,317.3,0.00,14.9,19.3,"00:28:16",1
"19/10/18","00:40",0.0,16.8,87.9,1017.5,317.5,1.7,3.6,340.8,0.00,14.8,19.1,"00:39:44",1
"19/10/18","00:50",0.0,16.8,88.0,1017.3,320.8,1.7,3.9,329.9,0.00,14.8,19.3,"00:43:20",1
"19/10/18","01:00",0.0,16.8,88.2,1017.3,301.0,1.1,2.2,326.5,0.00,14.9,19.3,"00:58:56",1
"19/10/18","01:10",0.0,16.8,88.3,1017.5,308.1,1.5,3.4,322.8,0.00,14.9,19.2,"01:09:36",1
"19/10/18","01:20",0.0,16.9,88.2,1018.0,323.8,2.1,4.8,335.7,0.00,15.0,19.2,"01:12:48",1
"19/10/18","01:30",0.0,17.0,87.8,1018.2,329.3,2.1,3.9,326.3,0.00,15.0,19.3,"01:21:12",1
"19/10/18","01:40",0.0,17.1,87.4,1018.0,325.3,1.7,2.7,336.8,0.00,15.0,19.2,"01:32:48",1
"19/10/18","01:50",0.0,17.1,87.2,1018.0,317.8,1.8,3.7,331.1,0.00,15.0,19.3,"01:45:28",1
"19/10/18","02:00",0.0,17.1,86.9,1017.8,326.6,2.6,4.2,332.6,0.00,14.9,19.0,"01:52:24",1
"19/10/18","02:10",0.0,17.1,86.6,1018.0,306.0,2.0,4.0,336.8,0.00,14.9,19.0,"02:01:20",1
"19/10/18","02:20",0.0,17.1,86.8,1017.5,276.4,1.3,2.5,233.8,0.00,14.9,18.9,"02:14:00",1
"19/10/18","02:30",0.0,17.1,86.8,1017.8,268.9,1.5,2.5,256.5,0.00,14.9,19.0,"02:29:20",1
"19/10/18","02:40",0.0,17.1,87.0,1017.5,266.3,1.3,2.6,254.5,0.00,15.0,19.0,"02:39:12",1
"19/10/18","02:50",0.0,17.1,87.3,1017.5,270.7,1.1,2.0,235.1,0.00,15.0,19.1,"02:44:00",1
"19/10/18","03:00",0.0,17.2,87.4,1017.5,270.6,1.1,1.7,310.3,0.00,15.1,19.1,"02:55:52",1
"19/10/18","03:10",0.0,17.2,87.7,1017.5,286.8,1.2,2.9,329.6,0.00,15.2,19.2,"03:08:08",1
"19/10/18","03:20",0.0,17.2,87.8,1017.3,292.8,1.0,2.0,330.9,0.00,15.2,18.9,"03:14:48",1
"19/10/18","03:30",0.0,17.3,87.9,1017.5,293.6,1.1,1.9,304.9,0.00,15.3,19.0,"03:26:00",1
"19/10/18","03:40",0.0,17.3,87.9,1017.3,309.2,1.3,2.9,335.7,0.00,15.3,19.1,"03:30:40",1
"19/10/18","03:50",0.0,17.4,87.8,1018.0,304.4,1.6,2.8,342.2,0.00,15.4,19.1,"03:45:04",1
"19/10/18","04:00",0.0,17.3,87.8,1017.8,292.0,1.1,2.2,309.6,0.00,15.3,19.1,"03:50:56",1
"19/10/18","04:10",0.0,17.2,87.6,1017.5,309.9,1.8,3.3,321.4,0.00,15.2,19.0,"04:02:32",1
"19/10/18","04:20",0.0,17.2,87.8,1017.5,303.6,1.6,2.8,311.7,0.00,15.2,19.1,"04:13:04",1
"19/10/18","04:30",0.0,17.1,87.8,1017.5,314.3,1.8,2.9,336.8,0.00,15.1,19.1,"04:24:40",1
"19/10/18","04:40",0.0,17.2,87.8,1017.5,302.3,1.3,2.2,297.4,0.00,15.2,18.9,"04:33:20",1
"19/10/18","04:50",0.0,17.1,87.7,1018.0,291.2,1.5,2.8,318.5,0.00,15.1,19.1,"04:49:20",1
"19/10/18","05:00",0.0,17.2,87.6,1017.8,307.2,1.7,2.9,340.1,0.00,15.2,19.3,"04:57:36",1
"19/10/18","05:10",0.0,17.2,87.5,1017.8,307.3,1.5,3.3,341.8,0.00,15.1,19.1,"05:09:52",1
"19/10/18","05:20",0.0,17.3,87.3,1017.8,310.5,1.8,3.5,329.3,0.00,15.2,18.9,"05:18:32",1
"19/10/18","05:30",0.0,17.3,87.1,1018.0,313.3,1.7,3.3,330.3,0.00,15.2,18.9,"05:28:24",1
"19/10/18","05:40",0.0,17.4,87.1,1017.8,283.6,1.2,2.7,335.3,0.00,15.3,18.9,"05:34:40",1
"19/10/18","05:50",0.0,17.3,87.2,1018.0,298.8,1.3,2.4,325.0,0.00,15.2,19.2,"05:48:08",1
"19/10/18","06:00",0.0,17.3,87.3,1018.0,278.9,1.0,1.7,322.6,0.00,15.2,19.0,"05:55:44",1
"19/10/18","06:10",0.0,17.2,87.6,1017.8,300.8,1.1,2.2,316.2,0.00,15.2,18.9,"06:09:36",1
"19/10/18","06:20",0.0,17.2,87.7,1018.0,275.9,1.1,2.6,255.7,0.00,15.2,19.0,"06:16:32",1
"19/10/18","06:30",0.0,17.2,88.0,1018.0,303.6,1.5,3.2,330.4,0.00,15.2,19.1,"06:24:56",1
"19/10/18","06:40",0.0,17.2,88.1,1018.0,268.3,1.0,1.7,261.5,0.00,15.3,19.0,"06:33:28",1
"19/10/18","06:50",0.0,17.1,88.5,1018.0,272.3,0.7,1.1,274.2,0.00,15.2,19.0,"06:40:16",1
"19/10/18","07:00",0.0,17.2,88.7,1017.8,290.6,1.0,1.9,314.7,0.00,15.4,19.2,"06:54:32",1
"19/10/18","07:10",0.0,17.3,89.1,1018.0,291.6,0.8,1.3,323.9,0.00,15.5,18.9,"07:08:40",1
"19/10/18","07:20",0.0,17.3,89.1,1017.5,275.7,0.7,1.4,322.8,0.00,15.5,18.9,"07:10:24",1
"19/10/18","07:30",0.0,17.3,89.5,1017.8,276.7,0.8,1.6,242.0,0.00,15.6,19.1,"07:28:08",1
"19/10/18","07:40",0.0,17.3,90.1,1017.8,303.0,1.0,1.6,275.9,0.00,15.7,19.1,"07:30:08",1
"19/10/18","07:50",0.0,17.6,90.6,1018.0,315.7,0.8,1.6,304.2,0.01,16.1,19.1,"07:47:12",1
"19/10/18","08:00",0.0,17.8,90.8,1018.2,277.2,0.8,1.4,319.3,0.00,16.3,19.2,"07:52:40",1
"19/10/18","08:10",0.0,17.9,91.1,1018.5,291.2,0.7,1.3,304.6,0.00,16.5,18.9,"08:05:12",1
"19/10/18","08:20",0.0,18.0,91.4,1018.2,308.9,0.5,1.4,316.9,0.01,16.6,18.9,"08:12:48",1
"19/10/18","08:30",0.0,18.3,91.5,1018.0,352.6,0.2,1.0,310.3,0.03,16.9,19.1,"08:20:16",1
"19/10/18","08:40",0.0,18.5,91.2,1018.2,277.8,0.3,1.2,249.1,0.05,17.1,19.0,"08:38:48",1
"19/10/18","08:50",0.0,18.6,91.4,1018.5,264.1,0.8,1.3,249.0,0.04,17.2,19.1,"08:45:04",1
"19/10/18","09:00",0.0,18.6,91.3,1018.2,288.8,0.6,1.0,325.8,0.03,17.2,19.2,"08:58:16",1
"19/10/18","09:10",0.4,18.8,92.0,1018.2,286.3,0.8,1.6,334.3,0.03,17.5,19.2,"09:02:16",1
"19/10/18","09:20",0.0,18.6,91.8,1018.2,269.2,1.0,1.8,242.0,0.01,17.3,19.3,"09:17:04",1
"19/10/18","09:30",0.0,18.6,92.4,1018.5,287.4,1.0,1.6,304.4,0.02,17.4,19.4,"09:20:56",1
"19/10/18","09:40",0.0,18.8,92.7,1018.0,295.4,1.0,1.8,319.3,0.02,17.6,19.4,"09:32:32",1
"19/10/18","09:50",0.2,18.9,92.7,1018.2,278.6,0.7,1.3,289.7,0.01,17.7,19.4,"09:41:20",1
"19/10/18","10:00",0.0,18.9,92.8,1018.5,294.9,0.7,1.6,298.0,0.00,17.7,19.5,"09:52:08",1
"19/10/18","10:10",0.0,19.0,93.1,1018.2,312.3,0.6,1.2,331.3,0.01,17.9,19.5,"10:05:12",1
"19/10/18","10:20",0.0,19.2,93.2,1018.0,310.2,0.8,1.6,318.8,0.01,18.1,19.4,"10:17:12",1
"19/10/18","10:30",0.0,19.2,93.1,1018.2,269.1,0.7,1.7,322.7,0.02,18.1,19.4,"10:23:52",1
"19/10/18","10:40",0.0,19.2,92.7,1018.0,277.2,1.0,2.2,325.0,0.05,18.0,19.5,"10:36:16",1
"19/10/18","10:50",0.0,19.6,93.2,1018.0,257.0,1.0,2.0,237.0,0.06,18.5,19.6,"10:43:28",1
"19/10/18","11:00",0.0,19.9,93.0,1018.2,265.5,1.0,1.7,243.7,0.07,18.8,19.7,"10:54:56",1
"19/10/18","11:10",0.0,19.8,91.6,1017.5,330.3,0.6,1.2,291.9,0.07,18.4,19.7,"11:09:28",1
"19/10/18","11:20",0.0,19.9,91.8,1017.8,284.0,0.6,1.2,334.7,0.05,18.6,19.8,"11:11:20",1
"19/10/18","11:30",0.0,19.9,91.6,1018.0,126.6,0.8,2.0,78.4,0.06,18.5,19.9,"11:27:20",1
"19/10/18","11:40",0.0,20.0,91.2,1017.5,130.1,0.8,2.4,146.2,0.06,18.6,19.8,"11:35:20",1
"19/10/18","11:50",0.0,20.0,90.7,1017.5,107.8,1.2,2.6,108.4,0.04,18.5,19.8,"11:48:56",1
"19/10/18","12:00",0.0,20.1,89.5,1017.5,86.1,1.5,3.2,103.4,0.06,18.4,19.7,"11:59:44",1
"19/10/18","12:10",0.0,20.4,88.4,1017.5,93.0,1.6,3.2,119.2,0.09,18.5,19.7,"12:00:56",1
"19/10/18","12:20",0.0,20.6,86.7,1017.5,101.9,1.6,3.5,39.9,0.08,18.3,20.1,"12:11:04",1
"19/10/18","12:30",0.0,20.8,85.2,1017.3,76.7,1.3,2.7,110.1,0.07,18.3,19.9,"12:29:44",1
"19/10/18","12:40",0.0,20.9,83.7,1017.1,86.7,1.3,3.4,92.1,0.05,18.1,19.9,"12:35:12",1
"19/10/18","12:50",0.0,20.8,83.1,1016.8,96.1,1.2,2.7,111.9,0.02,17.9,20.0,"12:40:32",1
"19/10/18","13:00",0.0,20.9,82.6,1016.8,82.7,1.1,1.8,105.3,0.02,17.9,19.9,"12:51:44",1
"19/10/18","13:10",0.0,20.9,82.5,1016.4,69.0,1.0,2.5,92.2,0.02,17.8,19.9,"13:03:12",1
"19/10/18","13:20",0.0,20.9,82.3,1016.1,93.0,1.2,3.7,113.7,0.01,17.8,20.1,"13:16:40",1
"19/10/18","13:30",0.0,20.9,82.2,1016.1,96.0,1.3,2.6,110.0,0.01,17.8,19.9,"13:20:08",1
"19/10/18","13:40",0.0,20.9,82.5,1015.6,95.0,1.5,3.3,110.8,0.02,17.8,19.8,"13:32:16",1
"19/10/18","13:50",0.0,20.8,83.0,1015.4,94.6,1.7,3.3,104.3,0.04,17.8,20.0,"13:46:16",1
"19/10/18","14:00",0.0,20.8,83.3,1015.6,83.1,1.6,3.5,111.7,0.06,17.9,19.9,"13:57:20",1
"19/10/18","14:10",0.0,20.8,82.9,1015.2,87.0,1.8,4.4,110.2,0.04,17.8,20.0,"14:07:12",1
"19/10/18","14:20",0.0,20.8,82.3,1015.4,73.3,1.3,3.2,118.5,0.01,17.7,20.0,"14:18:24",1
"19/10/18","14:30",0.0,20.9,81.8,1015.2,70.9,1.3,2.7,45.6,0.02,17.7,19.9,"14:28:08",1
"19/10/18","14:40",0.0,21.0,81.5,1015.4,52.8,0.7,1.8,57.1,0.00,17.8,20.0,"14:31:04",1
"19/10/18","14:50",0.0,20.9,81.5,1015.4,84.8,1.1,3.7,125.2,0.01,17.7,20.0,"14:48:18",1
"19/10/18","15:00",0.0,21.0,81.2,1015.2,110.4,0.7,2.6,92.1,0.00,17.7,20.0,"14:52:48",1
"19/10/18","15:10",0.0,20.9,81.4,1015.6,74.7,1.2,3.1,114.2,0.00,17.6,19.9,"15:06:16",1
"19/10/18","15:20",0.0,20.8,81.4,1015.9,92.1,1.5,5.1,95.8,0.01,17.5,20.0,"15:14:48",1
"19/10/18","15:30",0.2,20.8,81.8,1015.4,88.5,1.6,4.9,120.7,0.04,17.6,20.0,"15:24:48",1
"19/10/18","15:40",0.2,20.3,83.6,1015.4,85.6,1.5,3.5,107.1,0.02,17.5,20.0,"15:31:28",1
"19/10/18","15:50",0.0,20.0,85.2,1014.9,77.9,1.1,2.2,114.9,0.01,17.5,20.2,"15:44:00",1
"19/10/18","16:00",0.0,19.8,86.3,1015.2,65.7,1.0,3.2,8.5,0.01,17.5,20.1,"15:59:52",1
"19/10/18","16:10",0.2,19.7,87.2,1015.2,73.9,1.0,2.5,83.5,0.01,17.6,19.9,"16:01:12",1
"19/10/18","16:20",0.2,19.6,87.9,1015.2,63.7,1.0,2.6,40.0,0.01,17.6,20.0,"16:11:12",1
"19/10/18","16:30",0.0,19.6,88.2,1015.4,59.1,1.1,2.7,49.2,0.00,17.6,19.8,"16:23:28",1
"19/10/18","16:40",0.0,19.5,88.4,1015.2,31.3,0.7,2.0,119.4,0.00,17.6,19.9,"16:38:32",1
"19/10/18","16:50",0.0,19.5,88.7,1014.9,74.5,0.8,2.8,93.4,0.00,17.6,20.0,"16:47:20",1
"19/10/18","17:00",0.0,19.5,88.7,1015.2,76.5,1.5,3.4,95.6,0.00,17.6,19.7,"16:53:20",1
"19/10/18","17:10",0.0,19.4,88.6,1014.9,34.4,1.1,2.9,16.6,0.00,17.5,20.0,"17:01:44",1
"19/10/18","17:20",0.2,19.5,88.6,1014.7,52.6,0.8,2.2,98.4,0.00,17.6,19.8,"17:19:20",1
"19/10/18","17:30",0.0,19.4,88.8,1014.9,57.6,1.1,2.4,86.4,0.00,17.5,19.9,"17:21:12",1
"19/10/18","17:40",0.0,19.2,88.9,1014.9,61.9,0.8,2.4,101.6,0.00,17.4,19.8,"17:36:16",1
"19/10/18","17:50",0.0,19.2,88.7,1014.5,67.4,1.3,3.2,53.1,0.00,17.3,19.8,"17:41:52",1
"19/10/18","18:00",0.0,19.2,88.4,1015.2,80.6,1.6,4.1,34.5,0.00,17.3,19.8,"17:53:28",1
"19/10/18","18:10",0.0,19.3,88.1,1014.9,72.1,1.6,4.4,53.5,0.00,17.3,19.8,"18:05:28",1
"19/10/18","18:20",0.0,19.3,87.8,1014.5,48.5,1.0,2.8,96.2,0.00,17.3,19.6,"18:13:12",1
"19/10/18","18:30",0.0,19.2,87.7,1014.9,40.3,1.1,3.2,53.2,0.00,17.2,19.7,"18:24:48",1
"19/10/18","18:40",0.0,19.3,87.5,1015.2,71.6,1.1,2.9,111.9,0.00,17.2,19.5,"18:31:04",1
"19/10/18","18:50",0.2,19.4,87.3,1015.2,76.0,0.8,2.2,71.2,0.00,17.3,19.7,"18:42:16",1
"19/10/18","19:00",0.0,19.3,87.4,1015.4,37.8,1.0,3.4,20.4,0.00,17.2,19.5,"18:53:12",1
"19/10/18","19:10",0.2,19.3,87.5,1015.2,58.6,1.0,3.4,98.5,0.00,17.2,19.4,"19:03:52",1
"19/10/18","19:20",0.2,19.2,87.8,1014.9,55.6,1.0,2.5,161.5,0.00,17.2,19.7,"19:16:48",1
"19/10/18","19:30",0.2,19.1,88.2,1015.4,29.3,0.6,1.7,128.5,0.00,17.1,19.6,"19:21:36",1
"19/10/18","19:40",0.0,19.0,88.8,1015.4,321.0,0.5,1.3,338.8,0.00,17.2,19.6,"19:36:48",1
"19/10/18","19:50",0.4,18.9,89.1,1015.4,15.8,0.6,1.6,4.8,0.00,17.1,19.5,"19:49:04",1
"19/10/18","20:00",0.6,18.9,89.5,1015.6,95.2,0.6,1.9,100.1,0.00,17.2,19.5,"19:56:00",1
"19/10/18","20:10",0.6,18.7,90.0,1015.2,354.0,0.5,1.4,95.6,0.00,17.1,19.7,"20:00:56",1
"19/10/18","20:20",0.6,18.6,90.3,1015.2,3.1,0.6,2.2,8.7,0.00,17.0,19.3,"20:17:04",1
"19/10/18","20:30",0.2,18.6,90.6,1015.2,355.4,0.7,4.2,41.6,0.00,17.1,19.6,"20:24:16",1
"19/10/18","20:40",0.2,18.6,90.8,1014.7,317.0,0.5,1.4,23.1,0.00,17.1,19.4,"20:32:00",1
"19/10/18","20:50",0.0,18.5,91.2,1015.2,309.3,0.6,1.2,305.3,0.00,17.1,19.5,"20:45:04",1
"19/10/18","21:00",0.4,18.5,91.6,1014.9,290.4,0.5,1.3,297.9,0.00,17.1,19.6,"20:56:56",1
"19/10/18","21:10",0.2,18.4,92.0,1014.7,292.0,0.7,1.3,324.0,0.00,17.1,19.6,"21:03:52",1
"19/10/18","21:20",0.4,18.4,92.4,1014.9,275.9,0.6,1.4,302.6,0.00,17.2,19.4,"21:12:08",1
"19/10/18","21:30",1.2,18.3,92.6,1015.2,297.7,1.0,1.7,255.4,0.00,17.1,19.5,"21:22:48",1
"19/10/18","21:40",0.4,18.3,92.9,1015.4,289.5,0.6,2.0,323.5,0.00,17.2,19.2,"21:34:00",1
"19/10/18","21:50",0.0,18.2,93.2,1015.4,270.1,0.6,1.8,317.5,0.00,17.1,19.3,"21:40:40",1
"19/10/18","22:00",0.8,18.2,93.1,1015.4,60.9,0.6,2.0,84.3,0.00,17.1,19.5,"21:56:32",1
"19/10/18","22:10",1.8,18.2,93.1,1015.2,33.5,0.6,1.4,206.0,0.00,17.1,19.3,"22:09:36",1
"19/10/18","22:20",1.2,18.2,93.2,1015.4,46.3,0.6,2.0,65.9,0.00,17.1,19.2,"22:13:44",1
"19/10/18","22:30",1.6,18.2,93.3,1015.2,7.9,0.7,1.9,94.6,0.00,17.1,19.5,"22:22:32",1
"19/10/18","22:40",0.6,18.1,93.4,1014.7,11.9,0.6,1.3,333.2,0.00,17.1,19.3,"22:32:40",1
"19/10/18","22:50",0.2,18.0,93.5,1014.7,359.0,0.6,1.7,42.9,0.00,17.0,19.2,"22:41:52",1
"19/10/18","23:00",0.4,18.0,93.6,1014.7,249.0,0.2,0.8,247.0,0.00,17.0,19.2,"22:55:04",1
"19/10/18","23:10",0.8,17.9,93.8,1014.2,301.9,0.3,0.9,324.3,0.00,16.9,19.1,"23:02:56",1
"19/10/18","23:20",1.2,17.9,93.9,1014.2,281.9,0.5,1.9,265.6,0.00,16.9,19.0,"23:11:36",1
"19/10/18","23:30",1.2,17.9,93.9,1013.8,91.0,0.6,2.6,112.8,0.00,16.9,19.1,"23:20:02",1
"19/10/18","23:40",0.8,17.9,93.9,1014.2,92.4,0.7,1.9,93.2,0.00,16.9,19.2,"23:30:16",1
"19/10/18","23:50",0.8,17.8,94.0,1014.2,49.7,0.7,2.5,358.7,0.00,16.9,19.0,"23:46:24",1
"19/10/18","24:00",0.8,17.8,94.0,1013.8,332.4,0.7,1.8,341.5,0.00,16.9,19.3,"23:58:32",1
